Location: Jackson
(35.6140°N, 88.8140°W)
Time: 07:59:01
(UTC-05:00)

OTV 5 (USA 277) - Visible Passes

Search period start: 21 October 2019 00:00
Search period end: 31 October 2019 00:00
Orbit: 310 x 324 km, 54.5° (Epoch: 17 October)

Date Brightness Start Highest point End Pass type
(mag) Time Alt. Az. Time Alt. Az. Time Alt. Az.
21 Oct ? 04:52:34 10° ENE 04:52:34 10° ENE 04:52:37 10° ENE visible
21 Oct ? 06:23:30 15° WNW 06:25:16 28° SW 06:27:40 10° S visible
22 Oct ? 05:07:29 16° ESE 05:07:29 16° ESE 05:08:12 10° ESE visible
23 Oct ? 05:22:32 12° SSE 05:22:32 12° SSE 05:22:49 10° SSE visible
26 Oct ? 19:10:37 10° S 19:12:58 27° SE 19:12:58 27° SE visible
27 Oct ? 19:24:43 10° SW 19:27:25 78° NW 19:27:43 66° NNE visible
28 Oct ? 19:39:45 10° W 19:42:03 24° NW 19:42:18 23° NNW visible
29 Oct ? 19:56:13 10° NW 19:56:47 11° NW 19:56:47 11° NW visible
30 Oct ? 18:34:13 10° WSW 18:36:49 40° NW 18:39:25 10° NNE visible
